Theta_e
358 360 363 359 357 362 365 365 363 362 363 362 362 362 363 363 364 364 363 363 364 362 360 360 359 358 357 356 355 354 353 351 350 348 346 345 344 344 343 343 345 344 345
359 362 364 360 359 361 364 366 364 364 364 363 363 363 363 364 364 364 363 363 363 361 360 360 359 358 357 357 356 355 354 352 351 349 347 346 344 344 343 344 347 343 340
357 363 359 362 360 361 363 365 365 364 364 364 363 363 363 364 363 362 363 363 362 362 361 361 360 359 358 358 357 356 354 353 350 347 347 348 344 344 343 343 342 341 340
358 363 361 361 360 360 361 363 363 364 364 363 363 363 363 362 362 361 361 362 363 362 362 361 360 359 359 358 357 355 354 352 350 349 352 350 345 344 343 342 341 341 339
358 361 366 362 359 359 359 361 363 363 363 363 363 363 362 361 361 361 361 361 361 362 362 362 361 360 359 358 357 356 355 353 351 351 355 353 350 345 344 342 342 339 340
356 359 363 363 360 359 358 358 360 362 362 363 362 362 361 360 360 360 360 359 359 359 361 361 361 360 360 359 358 357 356 356 355 356 356 350 352 346 345 342 341 340 338
355 356 359 363 362 359 359 358 358 359 361 361 361 360 359 359 359 358 357 357 358 358 359 359 359 359 359 358 357 356 356 355 349 346 354 356 353 348 346 344 343 341 339
354 356 360 362 362 361 361 360 359 359 358 358 358 357 357 357 357 357 357 357 357 358 358 359 359 358 357 357 357 356 355 352 347 343 343 347 348 348 347 346 344 342 341
353 355 359 361 362 361 361 361 361 360 359 358 358 357 356 355 355 355 356 356 358 359 359 359 360 359 358 357 357 357 356 353 349 343 341 341 350 348 348 347 345 343 342
350 351 355 360 358 359 358 360 360 360 358 359 359 359 358 358 357 356 357 356 357 358 359 359 359 360 360 359 358 357 356 355 348 344 344 344 351 350 350 349 347 345 343
348 352 353 353 358 357 357 359 359 358 359 359 358 358 356 351 354 353 355 356 357 357 359 360 360 359 359 358 358 358 356 350 346 344 342 353 352 351 351 350 348 346 345
345 351 353 354 355 354 353 357 356 356 356 356 356 358 355 355 355 352 354 356 357 357 359 360 360 360 358 350 351 356 352 349 346 345 342 351 349 351 353 353 350 348 346
345 348 353 355 356 353 353 353 350 348 354 360 363 363 362 360 360 357 356 357 357 356 354 356 356 356 354 353 352 351 351 351 349 346 348 351 349 350 353 354 353 351 349
342 345 351 354 355 360 358 352 349 345 344 345 346 349 357 356 361 360 359 360 360 359 357 357 355 355 355 356 356 354 353 353 353 351 351 350 349 350 351 355 355 352 351
344 346 350 352 355 356 350 346 340 338 337 340 342 342 343 342 346 346 350 351 353 354 358 357 357 357 356 356 355 354 354 353 354 354 354 353 350 349 350 353 356 355 352
344 347 345 345 346 344 343 341 337 338 337 335 335 335 337 338 342 338 337 337 342 347 350 352 355 354 353 352 352 355 354 352 354 356 354 354 351 350 350 352 355 357 355
343 343 342 339 339 338 338 337 337 334 334 333 331 333 334 336 338 339 334 335 336 341 343 345 349 352 353 352 351 350 350 350 350 351 354 354 353 349 350 351 354 355 356
341 340 338 334 334 335 336 335 334 334 334 331 331 332 330 331 336 335 332 334 338 339 340 341 340 337 341 343 343 344 343 344 347 351 351 349 351 351 350 351 352 354 356
337 336 335 334 333 333 334 333 334 334 333 331 331 330 331 330 329 331 329 330 334 332 335 339 340 344 341 337 337 339 341 342 345 346 350 350 351 352 352 352 351 352 354
334 334 333 332 334 334 332 333 331 330 330 332 331 329 330 331 329 330 331 331 330 328 328 333 339 341 343 343 338 335 338 341 343 346 349 348 349 351 353 354 357 356 351
331 332 332 332 332 331 328 326 326 327 330 331 333 331 330 330 330 333 328 330 330 329 330 331 329 331 333 339 337 334 332 339 344 344 346 347 347 350 351 353 354 357 357
329 330 330 330 332 331 330 333 329 330 329 329 331 332 332 331 332 331 332 329 332 326 331 329 330 324 325 337 334 334 324 327 338 344 345 345 346 347 348 349 352 350 353
328 330 332 334 335 336 336 332 333 332 332 328 328 329 330 331 331 333 332 330 330 328 324 328 327 326 320 325 335 332 325 320 328 340 343 342 347 343 344 342 347 349 349
323 326 328 330 331 329 331 330 330 326 325 326 327 328 328 331 331 331 333 331 331 326 327 325 325 325 325 320 323 330 333 333 327 322 330 340 344 344 337 335 334 332 335
320 320 322 324 325 327 329 328 323 322 321 323 323 327 330 331 332 331 331 331 330 327 328 327 326 327 321 320 319 320 325 327 330 327 325 326 339 335 330 329 329 327 325
318 318 319 320 322 324 324 323 322 320 320 316 319 317 319 322 324 330 330 330 330 329 328 326 326 325 324 323 321 320 318 318 320 325 325 328 328 331 327 325 323 322 321
Wind_Speed
8 9 7 9 2 6 11 13 14 15 14 14 13 13 12 12 11 11 11 11 10 11 12 13 12 12 12 12 11 12 11 12 13 13 12 12 11 10 9 7 5 15 12
14 12 11 10 11 6 12 13 13 14 15 14 14 13 11 10 10 10 10 10 10 11 11 10 10 10 10 11 10 10 10 10 10 10 12 13 10 9 8 10 15 12 11
11 10 10 7 10 12 11 12 13 13 14 15 14 13 12 11 10 9 9 8 9 10 9 9 9 8 8 8 9 9 9 8 8 4 6 7 11 7 8 8 10 10 11
7 8 9 6 6 10 11 12 12 12 12 12 12 11 11 10 10 10 9 9 9 8 8 7 7 7 6 6 7 7 7 7 6 7 5 6 9 8 7 7 8 8 9
8 7 11 8 5 7 9 10 11 12 12 11 11 11 10 9 8 8 8 7 8 8 7 7 6 6 6 5 4 5 5 5 5 10 3 4 5 10 7 7 9 6 8
9 8 13 9 8 8 8 8 9 11 10 12 11 10 9 9 7 7 6 6 6 6 6 6 6 5 5 5 5 5 5 6 8 13 3 7 5 13 9 5 6 7 6
7 7 11 9 10 10 9 10 9 9 9 9 10 10 8 8 8 7 7 6 5 5 5 5 5 5 5 4 5 5 5 6 11 6 1 3 5 11 10 8 8 7 6
8 7 11 10 6 9 11 12 11 10 9 8 8 8 8 7 6 6 5 5 6 6 6 6 5 5 6 6 7 7 7 8 10 7 6 5 15 13 12 11 11 10 8
9 9 9 12 12 9 5 9 13 11 9 9 7 6 6 6 6 7 7 7 7 7 7 7 7 7 7 8 9 9 9 10 12 8 6 6 19 15 14 13 13 12 11
10 10 10 9 11 11 12 9 10 13 10 9 9 9 9 8 9 9 7 9 9 8 8 8 8 8 8 9 9 10 11 12 14 13 7 4 15 16 16 16 15 14 13
7 8 8 9 10 9 11 10 9 9 11 11 11 10 9 9 11 12 10 6 10 11 10 10 10 10 10 11 13 12 10 10 12 7 6 16 13 15 17 17 17 16 15
12 12 11 11 10 11 8 10 9 10 8 8 8 8 9 6 6 6 2 8 9 11 10 11 12 11 11 10 9 13 8 11 9 7 7 12 10 15 18 18 19 19 18
11 9 10 7 6 8 6 5 4 3 3 3 1 4 4 4 5 6 5 6 8 13 9 12 12 11 12 8 6 6 7 7 6 7 7 13 12 15 18 19 18 18 18
3 4 6 8 6 2 3 2 3 2 2 2 3 3 1 4 2 4 5 6 5 6 6 7 6 6 7 8 10 9 9 8 6 5 6 15 14 17 19 19 20 21 19
2 5 4 4 4 4 4 4 4 3 3 3 2 4 3 3 3 4 3 5 5 7 7 7 7 6 8 10 10 10 10 9 10 7 6 14 14 16 19 20 21 21 22
3 3 6 6 5 6 6 5 4 4 3 3 3 4 4 2 2 2 3 5 5 5 6 7 8 8 8 9 9 9 10 10 9 9 8 6 17 17 18 20 21 22 22
3 3 6 6 7 7 6 4 4 3 3 3 3 4 4 5 4 5 4 4 5 6 8 8 8 8 9 10 11 10 10 11 10 10 9 9 9 19 19 20 21 22 23
2 6 4 6 6 6 6 4 3 3 2 3 3 3 4 4 5 3 4 5 7 7 6 5 8 9 10 10 10 9 10 10 10 10 10 9 9 10 15 19 20 21 23
2 6 7 6 7 6 5 4 3 3 2 3 3 3 5 5 5 4 4 4 6 5 6 7 6 7 8 10 11 11 10 10 10 10 9 10 10 9 9 9 18 18 21
6 7 6 6 6 5 4 4 3 3 3 2 2 4 4 3 4 4 3 4 5 4 4 6 7 8 7 8 10 11 12 10 8 8 10 8 9 9 9 10 5 10 19
6 6 6 5 4 3 4 3 3 2 2 1 1 2 3 4 3 3 4 3 5 4 5 6 7 7 7 7 8 10 11 12 8 10 7 7 8 7 7 7 7 6 6
8 6 5 4 3 2 2 1 3 3 3 4 3 4 5 6 6 5 4 3 2 5 3 5 6 7 7 3 5 9 11 10 8 7 6 6 6 5 4 5 7 8 7
8 8 8 9 9 7 8 4 3 5 6 7 6 5 5 7 8 7 7 6 5 5 3 3 4 5 8 7 3 3 7 9 11 4 6 5 3 5 6 5 7 7 6
9 9 9 8 7 5 5 5 6 7 8 8 8 9 9 12 12 12 10 9 8 6 3 4 1 4 4 8 6 4 0 6 6 10 8 5 3 1 6 5 4 5 5
9 9 7 8 8 8 6 6 6 6 8 9 9 11 11 12 15 14 14 12 10 9 6 5 4 2 4 5 7 6 7 6 6 6 11 9 4 3 4 5 4 4 7
9 10 11 12 11 10 8 7 7 7 8 7 10 9 11 11 10 11 13 14 12 11 8 7 4 5 3 4 6 7 8 8 6 6 7 11 12 3 3 4 3 4 6
Wind_Direction
171 119 146 141 158 138 131 130 139 138 140 141 143 140 138 136 129 120 117 112 112 112 112 114 116 115 111 106 103 99 97 92 92 91 89 86 84 83 74 45 180 79 67
146 154 159 156 148 148 131 130 138 140 140 142 145 141 136 134 128 122 122 123 120 117 114 111 112 115 116 113 108 105 104 101 99 104 117 105 96 94 73 53 43 71 68
142 148 165 158 155 148 134 129 135 138 141 144 146 143 140 138 132 125 120 123 125 121 119 118 117 119 122 120 116 113 112 111 110 127 235 74 94 104 89 87 77 76 75
122 143 147 144 158 151 139 132 132 133 136 137 138 137 135 132 131 133 134 134 129 127 127 126 129 131 133 135 131 129 130 133 144 212 226 88 102 119 111 98 91 85 94
151 153 111 145 164 147 142 135 133 133 136 137 137 136 134 133 135 137 142 144 142 141 144 145 149 146 146 152 158 156 158 164 191 241 345 84 100 124 136 136 141 124 50
146 146 112 148 159 145 141 137 133 125 132 131 136 136 138 138 139 142 145 153 160 162 164 163 167 165 171 171 179 198 205 222 248 240 157 113 283 134 163 163 124 116 119
139 119 144 156 156 142 140 136 126 125 120 124 132 136 146 146 154 163 166 174 183 188 191 194 192 194 205 215 217 218 235 247 269 303 268 246 141 153 173 175 164 157 155
133 129 131 147 153 145 155 145 140 138 128 137 141 144 151 158 166 180 191 197 209 212 208 211 222 224 226 230 245 246 244 253 255 259 272 239 125 165 187 185 179 179 177
142 138 148 147 140 132 146 147 147 134 149 152 154 165 170 181 194 204 208 209 221 224 223 226 227 230 236 242 243 250 254 256 277 277 251 243 149 177 197 196 193 190 192
155 145 149 151 156 161 165 165 150 150 155 158 178 179 182 188 210 211 217 216 225 231 237 234 240 241 242 243 241 242 256 263 257 263 231 239 157 184 202 200 200 203 198
150 149 145 153 166 172 154 151 159 153 166 172 188 188 192 215 196 206 210 153 204 225 227 229 226 230 239 246 240 231 242 255 262 256 263 127 164 198 208 206 205 208 206
159 167 168 167 166 163 161 171 166 162 174 195 191 176 221 220 227 270 229 196 233 240 240 235 236 235 229 253 231 209 233 250 260 266 264 138 177 213 214 212 212 211 210
179 173 163 152 175 182 160 164 147 137 142 181 50 316 285 278 224 226 243 209 223 207 240 207 212 219 229 250 248 247 258 266 266 267 256 151 185 217 219 220 215 218 216
127 119 156 137 162 123 71 19 95 114 89 83 85 217 148 230 238 280 290 308 247 251 254 251 256 243 251 242 260 267 254 263 262 264 267 165 187 216 223 222 221 213 219
71 71 116 81 75 95 100 96 67 38 52 85 85 54 26 348 343 306 321 284 305 299 272 254 253 254 247 235 243 241 251 256 267 272 271 171 193 213 227 227 225 219 215
44 77 84 89 88 98 89 89 98 89 100 49 68 44 67 18 10 310 308 317 303 307 298 293 277 274 258 261 259 256 261 266 250 254 261 252 191 209 223 230 228 226 218
76 107 103 97 86 84 100 104 83 93 105 111 85 43 44 17 31 327 359 329 344 324 298 296 277 264 260 258 255 264 265 255 257 252 251 255 244 201 212 225 229 229 224
193 132 95 95 106 88 86 85 80 96 120 96 78 61 32 34 25 355 358 6 356 318 317 318 312 297 288 277 271 272 271 264 258 259 263 266 263 275 197 214 222 228 226
200 142 118 103 97 97 84 88 105 129 95 71 52 37 18 27 36 357 15 17 338 335 332 332 323 312 302 286 281 273 259 259 266 262 276 284 274 272 282 207 205 221 232
108 109 106 105 107 107 128 163 150 148 134 105 73 49 13 34 30 335 29 358 316 323 329 340 327 323 294 286 295 292 295 295 273 265 264 265 279 278 274 274 230 234 225
89 115 130 123 115 166 195 203 179 166 128 189 274 314 324 337 353 333 326 329 313 329 347 322 316 308 307 319 302 278 264 246 255 271 263 259 263 257 290 287 280 264 263
56 55 66 58 46 332 228 3 312 304 257 313 310 307 294 288 285 272 293 293 319 312 323 329 331 314 295 333 302 301 282 271 208 227 250 250 263 279 288 287 278 299 303
38 26 22 18 9 6 353 304 271 254 236 239 238 258 275 282 279 265 265 276 255 270 307 291 324 319 313 303 276 285 291 291 332 175 197 243 270 309 351 345 336 316 306
24 32 23 9 3 353 343 330 308 293 291 309 290 285 301 287 278 267 251 247 246 267 252 227 236 308 296 305 299 270 148 308 306 298 293 191 220 294 356 352 3 27 43
8 7 7 1 357 349 327 307 299 308 314 311 299 301 284 273 263 255 253 246 241 241 207 232 229 261 293 317 307 304 289 265 248 258 285 291 175 62 29 9 19 50 64
344 341 333 330 322 314 301 288 288 290 302 303 310 307 287 284 283 253 239 246 242 239 232 229 220 231 291 299 307 306 288 289 270 263 286 288 303 67 42 36 43 62 82